Hourly Data Report for October 09, 2018

VICTORIA UNIVERSITY CS
BRITISH COLUMBIA
Current Station Operator: ECCC - MSC

48°27'25.200" N
123°18'16.600" W
60.10 m
1018598
71783
WYJ

Download Data

Hourly Data (October 2018)
Hourly Data Report for October 9, 2018
TIME
LST
Temp Definition
°C
Dew Point Definition
°C
Rel Hum Definition
%
Precip. Amount Definition
mm

Wind Dir Definition
10's deg

Wind Spd Definition
km/h
Visibility Definition
km
Stn Press Definition
kPa
Hmdx Definition


Wind Chill Definition


Weather Definition


00:00 9.7 9.4 98 0.0 34 2   100.25     LegendNANA
01:00 10.1 9.9 99 0.0 36 3   100.28     LegendNANA
02:00 10.1 9.8 98 0.0 25 4   100.25     LegendNANA
03:00 10.5 10.2 98 0.0 31 3   100.30     LegendNANA
04:00 10.5 9.8 96 0.0 33 3   100.35     LegendNANA
05:00 9.9 9.5 97 0.0 18 3   100.42     LegendNANA
06:00 10.7 9.0 89 0.0 35 10   100.48     LegendNANA
07:00 10.8 8.5 85 0.0 34 8   100.56     LegendNANA
08:00 11.4 9.4 87 0.0 30 4   100.60     LegendNANA
09:00 13.2 9.2 77 0.0 36 9   100.67     LegendNANA
10:00 13.9 9.4 74 0.0 36 12   100.72     LegendNANA
11:00 14.6 9.5 71 0.0 36 11   100.77     LegendNANA
12:00 15.3 9.5 68 0.0 36 10   100.80     LegendNANA
13:00 15.3 9.1 67 0.0 2 8   100.78     LegendNANA
14:00 16.3 8.5 60 0.0 35 6   100.78     LegendNANA
15:00 16.0 8.9 63 0.0 10 2   100.81     LegendNANA
16:00 15.4 8.9 65 0.0 35 6   100.78     LegendNANA
17:00 13.6 9.0 74 0.0 22 2   100.81     LegendNANA
18:00 10.6 9.0 90 0.0 25 1   100.82     LegendNANA
19:00 9.4 8.5 94 0.0 29 2   100.83     LegendNANA
20:00 9.4 8.0 91 0.0 28 5   100.85     LegendNANA
21:00 9.2 8.0 92 0.0 30 5   100.88     LegendNANA
22:00 9.1 8.0 93 0.0 30 2   100.90     LegendNANA
23:00 9.0 8.0 93 0.0 18 2   100.93     LegendNANA

Notes on Data Quality.

Legend

  • E = Estimated
  • M = Missing
  • NA = Not Available*
  • [empty] = Indicates an unobserved value
Date modified: